Калкаман

Казахстан     51˚57′11″N   76˚01′32″E
темп.,
°C
ветер,
м/с
пор.,
м/с
влажн.,
%
обл.,
%
осадки,
мм/ч
давл.,
гПа
погр.,
м
16 января, сб
сб1600:00−21˚юв7138458 0.0 1039226
03:00−23˚юв588585 0.0 1036124
06:00−20˚юв578189 0.0 1033124
09:00−19˚юв587783 0.0 1030107
12:00−13˚юв587290 0.0 1027189
15:00−10˚юв5876100 0.0 1023177
18:00−12˚юв697796 0.0 1019114
21:00−12˚юв5776100 0.0 101681
17 января, вс
вс1700:00−10˚ю4560100 0.0 101344
03:00−7˚юз61474100 0.0 1012304
06:00−8˚зюз7168178 0.0 1013548
09:00−10˚зюз7148922 0.0 1015352
12:00−8˚з7138620 0.0 1018368
15:00−7˚зюз510850 0.0 1020316
18:00−10˚юз58840 0.0 1021111
21:00−10˚юз512790 0.0 1019193
18 января, пн
пн1800:00−7˚юз6157733 0.0 1017312
03:00−6˚зюз71576100 0.0 1016377
06:00−9˚з6138073 0.0 1016276
09:00−12˚з58870 0.0 1018134
12:00−11˚з48900 0.0 1020243
15:00−11˚зсз349122 0.0 1021162
18:00−17˚сз129326 0.0 102220
21:00−17˚ю129230 0.0 102220
19 января, вт
вт1900:00−16˚ююв129148 0.0 102120
03:00−14˚в238992 0.0 102020
06:00−13˚юв349172 0.0 101938
09:00−13˚юв338789 0.0 101921
12:00−9˚ююв118390 0.0 101943
15:00−8˚юв008229 0.0 101721
18:00−10˚вюв347820 0.0 101622
21:00−10˚вюв457836 0.0 101356
20 января, ср
ср2000:00−8˚юв448268 0.0 101155
03:00−3˚ю2383100 0.0 100942
06:00−2˚юз61285100 0.0 1008499
09:00−2˚юз61297100 1.0 1008467
12:00−1˚зюз101585100 1.3 1010970
15:00−5˚з10178081 0.0 1015722
18:00−9˚з6158340 0.0 1019423
21:00−13˚зюз5108732 0.0 1021177